Regional Weather Roundup
Issued by NWS

Home | Current Version | Previous Version | Graphics & Text | Print | Product List | Glossary On
Versions: 1 2 3 4 5 6 7 8 9 10 11 12 13 14 15 16 17 18 19 20 21 22 23 24 25 26 27 28 29 30 31 32 33 34 35 36 37 38 39 40 41 42 43 44 45 46 47 48 49 50
000
ASUS43 KBIS 210802
RWRND

NORTH DAKOTA REGIONAL WEATHER ROUNDUP
NATIONAL WEATHER SERVICE BISMARCK ND
300 AM CDT SAT OCT 21 2017

NOTE: "FAIR" INDICATES FEW OR NO CLOUDS BELOW 12,000 FEET WITH NO
SIGNIFICANT WEATHER AND/OR OBSTRUCTIONS TO VISIBILITY.


NDZ001>003-009>011-017-210900-
NORTHWEST NORTH DAKOTA

CITY           SKY/WX    TMP DP  RH WIND       PRES   REMARKS
WILLISTON        N/A    N/A N/A N/A MISG      29.35R
MINOT          CLEAR     58  33  39 W20G36    29.23R
MINOT AFB      CLEAR     56  33  42 W24G32    29.20R
$$

NDZ018>021-031>035-040>046-210900-
SOUTHWEST NORTH DAKOTA

CITY           SKY/WX    TMP DP  RH WIND       PRES   REMARKS
BISMARCK       CLEAR     61  34  36 W14       29.34R
DICKINSON      CLEAR     52  36  54 W23G31    29.40R
GARRISON         N/A     56  33  42 NW17G35   29.29R
HETTINGER ARPT CLEAR     47  37  68 W25G33    29.48R
$$

NDZ004>008-012>016-024-026-027-054-210900-
NORTHEAST NORTH DAKOTA

CITY           SKY/WX    TMP DP  RH WIND       PRES   REMARKS
GRAND FORKS    CLOUDY    67  58  72 S20G30    29.33F
GRND FRKS AFB  MOCLDY    65  57  75 S22G29    29.32F
DEVILS LAKE    CLEAR     61  54  77 S18G25    29.28R
$$

NDZ022-023-025-028>030-036>039-047>053-210900-
SOUTHEAST NORTH DAKOTA

CITY           SKY/WX    TMP DP  RH WIND       PRES   REMARKS
FARGO          CLOUDY    68  58  70 S21G33    29.39S
JAMESTOWN      CLEAR     62  56  80 S14       29.32R
$$





USA.gov is the U.S. government's official web portal to all federal, state and local government web resources and services.